SCP
2 2 1 1 1 1 1 1 1 1 0 0 0 0 0 0 0 0 0 0 0 0 0 0 0 0 0 0 0 0 0 0 0 0 1 1 1 1
2 2 2 2 1 1 1 1 1 1 1 1 1 0 0 0 0 0 0 0 0 0 0 0 0 0 0 0 0 0 0 0 0 0 0 1 1 1
2 2 2 2 2 1 1 1 1 1 1 1 1 1 0 0 0 0 0 0 0 0 0 0 0 0 0 0 0 0 0 0 0 0 0 0 0 1
2 2 2 2 2 1 1 1 1 1 1 1 1 1 1 1 0 0 0 0 0 0 0 0 0 0 0 0 0 0 0 0 0 0 0 0 0 0
2 2 2 2 2 1 1 1 1 1 1 1 1 1 1 1 0 0 0 0 0 0 0 0 0 0 0 0 0 0 0 0 0 0 0 0 0 0
2 1 1 1 1 1 1 1 1 1 1 1 1 1 1 0 0 0 0 0 0 0 0 0 0 0 0 0 0 0 0 0 0 0 0 0 0 0
2 2 1 1 1 1 1 1 1 1 1 1 1 1 1 0 0 0 0 0 0 0 0 0 0 0 0 0 0 0 0 0 0 0 0 0 0 0
2 2 1 1 1 1 1 1 1 1 1 1 1 1 1 1 0 0 0 0 0 0 0 0 0 0 0 0 0 0 0 0 0 0 0 0 0 0
2 2 1 1 1 1 1 1 1 1 1 1 1 1 1 0 0 0 0 0 0 0 0 0 0 0 0 0 0 0 0 0 0 0 0 0 0 0
1 1 1 1 1 1 1 1 1 1 1 1 0 0 0 0 0 0 0 0 0 0 0 0 0 0 0 0 0 0 0 0 0 0 0 0 0 0
1 1 1 1 1 1 0 1 1 0 0 0 0 0 0 0 0 0 0 0 0 0 0 0 0 0 0 0 0 0 0 0 0 0 0 0 0 0
1 1 1 1 0 0 0 0 0 0 0 0 0 0 0 0 0 0 0 0 0 0 0 0 0 0 0 0 0 0 0 0 0 0 0 0 0 0
1 1 1 0 0 0 0 0 0 0 0 0 0 0 0 0 0 0 0 0 0 0 0 0 0 0 0 0 0 0 0 0 0 0 0 0 0 0
2 1 0 0 0 0 0 0 0 0 0 0 0 0 0 0 0 0 0 0 0 0 0 0 0 0 0 0 0 0 0 0 0 0 0 0 0 0
1 1 0 0 0 0 0 0 0 0 0 0 0 0 0 0 0 0 0 0 0 0 0 0 0 0 0 0 0 0 0 0 0 0 0 0 0 0
1 0 0 0 0 0 0 0 0 0 0 0 0 0 0 0 0 0 0 0 0 0 0 0 0 0 0 0 0 0 0 0 0 0 0 0 0 0
0 0 0 0 0 0 0 0 0 0 0 0 0 0 0 0 0 0 0 0 0 0 0 0 0 0 0 0 0 0 0 0 0 0 0 0 0 0
0 0 0 0 0 0 0 0 0 0 0 0 0 0 0 0 0 0 0 0 0 0 0 0 0 0 0 0 0 0 0 0 0 0 0 0 0 0
0 0 0 0 0 0 0 0 0 0 0 0 0 0 0 0 0 0 0 0 0 0 0 0 0 0 0 0 0 0 0 0 0 0 0 0 0 0
0 0 0 0 0 0 0 0 0 0 0 0 0 0 0 0 0 0 0 0 0 0 0 0 0 0 0 0 0 0 0 0 0 0 0 0 0 0
0 0 0 0 0 0 0 0 0 0 0 0 0 0 0 0 0 0 0 0 0 0 0 0 0 0 0 0 0 0 0 0 0 0 0 0 0 0
0 0 0 0 0 0 0 0 0 0 0 0 0 0 0 0 0 0 0 0 0 0 0 0 0 0 0 0 0 0 0 0 0 0 0 0 0 0
0 0 0 0 0 0 0 0 0 0 0 0 0 0 0 0 0 0 0 0 0 0 0 0 0 0 0 0 0 0 0 0 0 0 0 0 0 0
Wind_Speed
4 4 3 2 2 2 3 3 3 2 3 3 2 3 3 3 5 4 4 7 10 11 11 11 11 11 11 11 10 10 10 10 10 10 9 9 10 10
3 3 3 2 2 1 2 2 3 3 3 3 3 3 2 3 4 4 4 6 7 9 9 10 10 10 11 11 11 11 11 11 10 10 9 9 9 9
3 3 3 2 1 1 1 1 2 2 3 3 1 1 2 2 1 2 2 2 3 6 8 9 9 10 10 10 10 10 10 10 10 10 9 9 9 9
3 2 2 2 1 1 1 1 2 2 2 3 2 1 1 2 1 1 2 2 2 4 6 7 8 8 9 8 8 9 9 9 9 9 9 9 9 9
2 2 2 1 1 1 1 1 1 1 1 1 1 1 1 0 0 1 1 1 2 2 4 5 6 6 7 7 8 8 8 9 9 9 9 8 8 9
1 2 2 1 1 1 1 1 0 1 1 1 0 1 1 1 1 0 1 1 2 2 1 1 2 3 3 4 5 6 7 8 8 8 9 8 8 8
1 1 2 3 2 1 1 1 1 1 1 1 1 1 1 1 1 1 1 1 2 1 1 2 1 1 1 2 3 3 4 5 6 6 6 6 6 6
2 2 2 3 4 6 6 6 4 2 2 1 1 1 1 1 1 1 1 1 2 2 1 2 1 1 1 1 2 2 2 3 3 3 4 4 4 4
2 2 3 3 4 3 5 6 6 6 4 3 2 0 1 1 1 1 0 0 1 2 1 2 1 1 2 2 2 1 1 1 2 2 2 2 3 3
3 3 3 2 3 3 4 4 4 4 3 3 2 0 1 1 1 1 1 0 0 2 2 1 2 2 2 2 4 2 2 2 1 1 2 2 2 2
3 3 3 3 3 4 4 4 3 3 4 6 5 4 5 5 3 2 2 2 1 2 2 1 1 2 2 2 3 4 4 4 4 3 2 2 2 2
3 3 4 4 4 4 4 4 3 1 2 4 4 5 4 5 6 3 2 2 1 1 2 1 1 1 2 2 2 3 3 4 5 5 4 3 1 0
3 2 2 5 5 5 4 3 3 2 2 2 3 3 4 4 4 3 2 2 2 0 1 1 1 1 0 1 2 2 2 2 3 4 4 3 2 1
3 2 2 6 6 6 4 5 5 4 2 3 3 3 3 3 3 3 3 2 1 0 1 1 1 0 0 1 2 3 3 2 2 2 3 4 2 1
3 5 6 7 6 5 6 6 5 3 3 3 2 2 1 2 3 3 4 4 4 4 3 1 1 1 1 1 1 2 2 3 2 2 2 2 2 2
4 6 8 9 7 6 5 4 3 3 3 2 1 1 2 3 3 3 3 3 3 4 5 4 2 2 1 1 0 1 1 2 3 2 2 2 2 2
5 4 4 4 5 4 4 4 3 3 3 3 3 3 3 3 3 3 2 3 2 2 4 4 4 2 1 0 1 1 1 2 2 2 2 2 3 2
7 5 4 4 3 3 3 3 4 3 3 3 3 2 2 2 2 3 2 2 2 2 2 2 3 4 4 3 1 1 2 2 3 2 1 1 3 3
6 4 3 3 2 2 2 2 2 2 2 2 2 2 2 2 2 2 2 2 2 2 2 2 2 2 2 3 5 2 1 2 2 2 2 1 2 4
4 3 3 2 2 2 2 2 2 2 2 2 2 2 2 2 2 2 2 2 1 2 2 3 2 1 1 2 3 4 3 1 1 2 2 2 2 4
3 3 2 2 2 2 2 2 2 2 2 2 2 2 2 2 2 2 2 3 2 2 2 3 4 4 1 1 2 4 4 4 3 1 1 1 2 3
3 3 3 3 3 3 3 3 3 3 3 3 2 2 2 2 2 2 2 2 2 2 2 3 4 3 2 1 2 3 4 4 5 5 3 1 1 2
3 4 4 3 3 3 3 3 3 3 3 3 3 2 2 2 2 2 2 2 2 2 2 3 3 3 2 2 2 3 4 4 3 4 4 7 7 5
Wind_Direction
223 221 222 229 215 210 197 183 181 231 265 257 252 246 230 214 214 208 217 218 216 217 218 217 217 217 218 219 222 225 231 236 238 239 241 243 245 246
220 219 228 234 235 229 212 211 195 197 240 251 235 236 233 234 215 208 219 224 223 218 218 218 218 217 218 219 222 225 228 231 234 235 237 241 241 242
232 215 225 222 229 244 226 211 206 187 233 271 255 249 214 237 246 228 226 226 234 226 222 223 222 222 223 224 227 231 235 235 236 237 238 238 240 243
233 217 237 229 228 246 239 231 228 214 206 252 278 268 237 231 229 227 238 232 234 236 225 223 223 225 228 229 230 233 236 236 237 239 239 240 240 241
211 198 223 210 250 268 249 244 242 231 192 199 268 282 289 344 29 315 304 306 271 261 233 230 228 227 231 231 232 234 236 238 239 240 241 242 243 243
179 176 180 181 227 249 243 254 206 88 70 88 1 354 2 339 70 27 338 326 309 312 310 255 253 246 249 247 244 244 243 243 241 240 241 242 243 244
98 101 101 97 88 90 83 83 100 96 82 77 59 38 16 13 350 301 270 305 322 337 344 342 344 348 310 281 265 255 247 248 249 246 243 242 241 242
112 83 69 65 78 77 76 74 82 102 113 99 75 65 337 319 313 308 272 316 317 333 353 332 12 352 317 307 303 262 252 249 249 245 242 242 243 244
100 84 71 69 85 88 76 69 62 68 95 129 121 195 274 286 300 340 347 349 263 300 4 326 344 349 334 359 3 336 259 239 234 235 230 233 235 237
88 97 96 80 86 102 92 75 60 45 57 79 103 52 352 311 215 194 190 130 12 354 31 340 331 337 353 5 17 22 359 335 309 274 250 237 238 238
74 77 94 95 86 99 98 91 69 40 52 64 62 51 43 36 45 83 65 71 19 346 8 46 314 327 338 350 6 16 12 4 353 340 317 287 269 262
65 58 68 86 91 104 110 110 96 49 49 44 36 26 27 30 37 63 97 97 76 347 335 23 324 0 349 344 358 360 4 2 358 352 344 329 313 188
88 64 53 76 83 89 96 101 114 109 78 71 53 36 32 30 25 29 46 97 109 238 303 43 13 7 31 315 331 340 349 350 356 357 359 350 329 190
105 87 68 77 79 79 80 78 81 81 73 67 59 41 32 20 8 17 28 39 62 124 303 72 101 123 73 350 317 325 335 343 357 359 354 352 350 331
91 89 79 74 73 69 66 72 73 71 70 69 62 33 12 9 14 21 17 23 25 19 13 17 84 107 113 159 282 307 324 331 347 352 347 346 339 342
80 76 73 68 65 61 55 54 56 64 80 81 66 33 29 33 26 21 23 18 27 359 354 7 23 66 57 344 255 320 325 316 326 333 335 328 331 340
100 78 67 62 57 49 46 45 45 49 51 46 54 48 39 36 21 12 23 27 31 356 344 352 5 16 27 128 48 324 318 319 306 313 337 327 312 309
97 89 82 77 72 63 57 47 42 45 45 49 52 50 44 35 21 12 21 29 19 352 338 338 6 13 9 351 316 258 305 295 304 312 321 314 302 305
93 94 91 86 77 68 63 62 50 36 48 55 53 39 34 31 28 13 9 13 4 344 326 332 8 41 14 326 309 316 279 299 313 314 298 277 273 289
85 95 95 91 85 76 66 59 49 37 39 41 37 29 28 35 30 13 5 3 351 345 341 339 342 332 248 254 271 300 317 293 302 306 306 311 298 302
82 82 82 85 78 68 60 55 56 49 39 37 34 30 27 37 27 6 355 355 3 351 338 319 296 305 283 22 344 319 312 319 312 281 276 315 323 327
81 79 71 72 72 67 58 51 47 40 32 29 18 16 18 30 26 9 355 345 329 315 305 305 321 344 9 359 308 301 309 323 335 339 328 276 239 264
90 85 79 71 64 63 65 63 63 47 33 27 20 11 13 14 4 5 358 352 344 341 341 336 340 351 343 333 322 320 326 328 334 343 332 329 326 310